This demonstration page uses our WeatherBlox Daily Observations layout. Learn more.

Left ArrowRight Arrow

38.20091, -84.87328

Hourly Observations for September 8, 2016

Temp ( °F °C ) Dew Point ( °F °C ) Humidity (%) Winds ( mph kmh ) Pressure ( in mb ) Visibility ( mi km ) Precip ( " mm )
12:53 am 00:53 Clear 72 22.2 66 18.9 82 82 SSW 3 6 30.03 1017 10 16 0.00 0.00
1:53 am 01:53 Clear 72 22.2 66 18.9 82 82 SW 5 7 30.03 1017 10 16 0.00 0.00
2:53 am 02:53 Clear 72 22.2 66 18.9 82 82 SW 3 6 30.02 1017 10 16 0.00 0.00
3:53 am 03:53 Clear 70 21.1 65 18.3 84 84 SSW 3 6 30.01 1016 10 16 0.00 0.00
4:53 am 04:53 Clear 69 20.6 65 18.3 87 87 SSW 5 7 30.00 1016 10 16 0.00 0.00
5:53 am 05:53 Clear 71 21.7 65 18.3 81 81 S 5 7 30.00 1016 10 16 0.00 0.00
6:53 am 06:53 Clear 70 21.1 65 18.3 84 84 SSW 5 7 30.01 1016 10 16 0.00 0.00
7:53 am 07:53 Sunny 72 22.2 66 18.9 82 82 S 5 7 30.02 1017 10 16 0.00 0.00
8:53 am 08:53 Sunny 78 25.6 67 19.4 69 69 SW 8 13 30.02 1017 10 16 0.00 0.00
9:53 am 09:53 Sunny 82 27.8 66 18.9 58 58 SW 12 19 30.01 1016 10 16 0.00 0.00
10:53 am 10:53 Sunny 84 28.9 68 20 59 59 SW 12 19 30.01 1016 10 16 0.00 0.00
11:53 am 11:53 Sunny 88 31.1 70 21.1 55 55 WSW 9 15 30.01 1016 10 16 0.00 0.00
12:53 pm 12:53 Mostly Sunny 88 31.1 69 20.6 54 54 WSW 15 24 30.01 1016 10 16 0.00 0.00
1:53 pm 13:53 Partly Cloudy 89 31.7 69 20.6 52 52 W 8 13 29.98 1015 10 16 0.00 0.00
2:53 pm 14:53 Mostly Cloudy 88 31.1 68 20 52 52 SW 13 20 29.97 1015 10 16 0.00 0.00
3:53 pm 15:53 Cloudy 89 31.7 68 20 50 50 SW 15 24 29.94 1014 10 16 0.00 0.00
4:53 pm 16:53 Mostly Cloudy 90 32.2 69 20.6 50 50 SSW 15 24 29.92 1013 10 16 0.00 0.00
5:53 pm 17:53 Mostly Sunny 89 31.7 67 19.4 48 48 SSW 15 24 29.91 1013 10 16 0.00 0.00
6:53 pm 18:53 Sunny 88 31.1 67 19.4 50 50 SSW 10 17 29.91 1013 10 16 0.00 0.00
7:53 pm 19:53 Sunny 84 28.9 67 19.4 57 57 SSW 8 13 29.92 1013 10 16 0.00 0.00
8:53 pm 20:53 Clear 82 27.8 67 19.4 60 60 SSW 7 11 29.93 1014 10 16 0.00 0.00
9:53 pm 21:53 Clear 80 26.7 67 19.4 64 64 SSW 8 13 29.93 1014 10 16 0.00 0.00
10:53 pm 22:53 Clear 80 26.7 67 19.4 64 64 SSW 7 11 29.94 1014 10 16 0.00 0.00
11:53 pm 23:53 Clear 78 25.6 67 19.4 69 69 S 6 9 29.94 1014 10 16 0.00 0.00

Powered by AerisWeather